Regional Weather Roundup
Issued by NWS

Home | Current Version | Previous Version | Graphics & Text | Print | Product List | Glossary On
Versions: 1 2 3 4 5 6 7 8 9 10 11 12 13 14 15 16 17 18 19 20 21 22 23 24 25 26 27 28 29 30 31 32 33 34 35 36 37 38 39 40 41 42 43 44 45 46 47 48 49 50
000
ASUS43 KFSD 291302
RWRSD

WEATHER ROUNDUP FOR SOUTH DAKOTA
NATIONAL WEATHER SERVICE SIOUX FALLS SD
800 AM CDT SUN MAR 29 2015

NOTE: "FAIR" INDICATES FEW OR NO CLOUDS BELOW 12,000 FEET WITH NO
SIGNIFICANT WEATHER AND/OR OBSTRUCTIONS TO VISIBILITY.


SDZ001>005-009-010-012>017-291400-
NORTHWEST AND NORTH CENTRAL SOUTH DAKOTA

CITY           SKY/WX    TMP DP  RH WIND       PRES   REMARKS
BUFFALO          N/A     35  31  85 NW20      30.06R WCI  24
FAITH            N/A     38  29  70 NW32G44   30.04R
MOBRIDGE       CLOUDY    42  36  79 NW31G44   29.91R
$$

SDZ012>016-024>037-041>051-057-063-072>074-291400-
SOUTHWEST AND SOUTH CENTRAL SOUTH DAKOTA

CITY           SKY/WX    TMP DP  RH WIND       PRES   REMARKS
RAPID CTY ARPT CLEAR     43  31  62 NW31G52   30.09R
PIERRE         CLOUDY    45  36  70 NW31G43   29.94R
CUSTER         CLEAR     36  18  48 MISG      30.09R
ELLSWORTH AFB  LGT RAIN  42  35  78 N35G48    30.07
PHILIP         PTCLDY    46  34  62 NW24G41   30.05R
PINE RIDGE     PTCLDY    43  26  51 NW16G28   30.15R
SPEARFISH      MIX PCPN  41  32  70 NW26G38   30.19R
WINNER         CLOUDY    50  36  58 NW39G53   29.94R
$$

SDZ004>011-016>023-039-040-291400-
NORTHEAST SOUTH DAKOTA

CITY           SKY/WX    TMP DP  RH WIND       PRES   REMARKS
ABERDEEN       LGT RAIN  42  38  85 NW29G45   29.79R
WATERTOWN      LGT RAIN  43  39  86 W24G33    29.68R
SISSETON         N/A     43  42  97 N30G40    29.63R
$$

SDZ017-020-022-023-036>040-048>070-291400-
SOUTHEAST SOUTH DAKOTA

CITY           SKY/WX    TMP DP  RH WIND       PRES   REMARKS
SIOUX FALLS    PTCLDY    47  35  63 W16G24    29.74R
HURON          LGT RAIN  45  39  79 NW33G49   29.79R
MITCHELL       CLOUDY    49  38  65 NW36G46   29.81R
YANKTON        CLEAR    N/A N/A N/A W30G41    29.81S
$$

ABBREVIATIONS USED IN REMARKS
   TC - TEMPERATURE IN CELSIUS
  WCI - WIND CHILL INDEX
   HX - HEAT INDEX
  VSB - VISIBILITY



USA.gov is the U.S. government's official web portal to all federal, state and local government web resources and services.